{"data":{"norad_id":69078,"intl_designator":"2026-104F","name":"QIANFAN-132","alt_names":[],"object_type":"PAYLOAD","status":"ACTIVE","operator":null,"country":"PRC","launch_date":"2026-05-12","launch_site_code":"TAISC","launch_vehicle":null,"mission":null,"orbit_class":"UNKNOWN","rcs_meters":null,"size_class":null,"mass_kg":null,"dimensions":null,"purposes":[],"wikipedia_slug":null,"has_3d_model":false,"image_url":null,"decayed_at":null,"tle_current":{"epoch":"2026-09-20T03:59:01.819392Z","epoch_age_seconds":52169,"freshness":"FRESH","line1":"1 69078U 26104F   26263.16599328  .00000060  00000+0  73899-4 0  9990","line2":"2 69078  88.9901 331.8293 0002393  99.7013 260.4408 13.51022070 17959","mean_motion":13.5102207,"eccentricity":0.0002393,"inclination_deg":88.9901,"raan_deg":331.8293,"arg_perigee_deg":99.7013,"mean_anomaly_deg":260.4408,"bstar":7.3899e-5,"rev_number":1795,"period_min":106.58597161185,"perigee_km":1066.7185060337,"apogee_km":1070.2824667346,"semimajor_km":7446.6374863841,"source":"CELESTRAK","updated_at":"2026-09-20T09:00:24.643160Z"}}}